• MPC Preparation (Info)

  • MPEC 2023-M03 : 2010 KJ80 = 2023 KK3

    The following Minor Planet Electronic Circular may be linked-to from your own Web pages, but must not otherwise be redistributed electronically.

    A form allowing access to any MPEC is at the bottom of this page.


    Read MPEC 2023-M02 Read MPEC 2023-M04


    M.P.E.C. 2023-M03                                 Issued 2023 June 16, 02:48 UT
    
         The Minor Planet Electronic Circulars contain information on unusual
             minor planets, routine data on comets and natural satellites,
             and occasional editorial announcements.  They are published
        on behalf of Division F of the International Astronomical Union by the
              Minor Planet Center, Smithsonian Astrophysical Observatory,
                              Cambridge, MA 02138, U.S.A.
    			  
                 Prepared using the Tamkin Foundation Computer Network
    
                                  MPC@CFA.HARVARD.EDU
                URL https://www.minorplanetcenter.net/    ISSN 1523-6714
    
                              2010 KJ80 = 2023 KK3                           
    
    Observations:
         K10K80J  C2006 06 01.35959 21 23 15.68 +03 29 07.1          20.1 VrEM003G96
         K10K80J  C2006 06 01.36653 21 23 16.22 +03 29 17.3          20.3 VrEM003G96
         K10K80J  C2006 06 01.37346 21 23 16.76 +03 29 28.1          20.6 VrEM003G96
         K10K80J  C2006 06 01.38061 21 23 17.30 +03 29 38.5          20.4 VrEM003G96
    
    Observer details:
    G96 Mt. Lemmon Survey.  Observer A. D. Grauer.  Measurers E. C. Beshore, E. J.
        Christensen, G. J. Garradd, A. R. Gibbs, A. D. Grauer, R. E. Hill, R. A.
        Kowalski, S. M. Larson, R. H. McNaught.  1.5-m reflector + CCD.
    
    Orbital elements:
    2010 KJ80 = 2023 KK3                                     Earth MOID = 0.2888 AU
    Id. R. Weryk
    Epoch 2023 Feb. 25.0 TT = JDT 2460000.5                 Veres                   
    M 344.66920              (2000.0)            P               Q                  
    n   0.23232897     Peri.   16.81105     -0.36412836     +0.91591778             
    a   2.6205984      Node   232.15950     -0.87720581     -0.39818576             
    e   0.5055779      Incl.   12.34456     -0.31292253     +0.05042532             
    P   4.24           H   19.22          G   0.15           U   1                  
    Residuals in seconds of arc
    060601 G96  0.1-  0.1+    230525 807  0.3-  0.9+    230602 G96  0.3+  0.1-
    060601 G96  0.0   0.2-    230525 807  0.1-  0.5-    230605 I52  0.1+  0.1+
    060601 G96  0.1+  0.1+    230525 807  0.0   0.2-    230605 I52  0.9-  0.1+
    060601 G96  0.0   0.3-    230525 H21  0.2-  0.1-    230605 I52  0.1-  0.5-
    100525 C51  0.4+  0.5+    230525 H21  0.1-  0.2-    230608 I52  0.2-  0.0
    100525 C51  1.3+  0.8-    230525 H21  0.0   0.0     230608 I52  0.3+  0.2+
    100526 C51  0.1+  0.5+    230525 H21  0.0   0.3+    230608 I52  0.4+  0.2+
    100526 C51  0.0   0.1-    230525 H36  0.8+  0.2-    230608 I52  0.3+  0.4+
    100526 C51  0.6-  0.5+    230525 H36  0.7+  0.0     230612 I52  0.6-  0.0
    100526 C51  0.1+  0.4+    230525 H36  0.4+  0.9+    230612 I52  0.5-  0.1+
    100526 C51  0.5+  0.7+    230525 I52  0.0   0.1-    230612 I52  0.3-  0.1-
    100526 C51  0.5+  0.5+    230525 I52  0.0   0.1-    230612 I52  0.4+  0.1-
    100526 C51  0.2+  0.1+    230525 I52  0.2-  0.0     230613 T12  0.0   0.1+
    100526 C51  0.4-  0.2+    230525 T14  0.1-  0.1+    230613 T12  0.0   0.1+
    100526 C51  0.7+  1.1+    230525 T14  0.1-  0.0     230613 T12  0.1-  0.1+
    100526 C51  0.1-  0.2-    230525 T14  0.1-  0.0     230613 T12  0.0   0.1+
    100527 C51  0.0   0.1+    230526 H21  0.2-  0.2+    230613 T12  0.0   0.1+
    100527 C51  0.3-  0.3+    230526 H21  0.2-  0.2+    230613 T12  0.0   0.1+
    100527 C51  0.2+  0.6+    230526 H21  0.3-  0.4+    230613 T12  0.0   0.1+
    100527 C51  0.5+  0.4+    230527 K83  0.3+  0.3+    230613 T12  0.0   0.2+
    100527 C51  0.3-  0.3-    230527 K83  0.3-  0.3+    230615 H21  0.4-  0.4+
    100527 C51  0.1+  0.4+    230527 H21  0.2-  0.2+    230615 H21  0.2-  0.2+
    100527 C51  0.6+  0.3+    230527 H21  0.1+  0.0     230615 H21  0.4-  0.4+
    230524 F51  0.2-  0.0     230602 G96  0.1+  0.1+    230615 I52  0.0   0.1-
    230524 F51  0.0   0.0     230602 G96  0.0   0.0     230615 I52  0.2-  0.0
    230524 F51  0.0   0.0     230602 G96  0.0   0.1-    230615 I52  0.1-  0.0
    
    Ephemeris:
    2010 KJ80                a,e,i = 2.62, 0.51, 12                  q = 1.2957
    Date    TT    R. A. (2000) Decl.     Delta      r    Elong.  Phase     V
    2023 05 17    20 31 25.5 -05 13 02   0.5909  1.3057   106.2    48.0    20.5
    ...
    2023 06 01    20 57 35.5 +02 29 35   0.5771  1.3348   111.1    45.1    20.4
    ...
    2023 06 09    21 06 54.5 +06 09 14   0.5745  1.3576   114.4    42.9    20.3
    ...
    2023 06 15    21 11 44.0 +08 36 31   0.5743  1.3776   117.4    40.9    20.3
    2023 06 16    21 12 21.4 +08 59 24   0.5744  1.3812   117.9    40.5    20.3
    2023 06 17    21 12 55.6 +09 21 46   0.5746  1.3848   118.4    40.2    20.3
    ...
    2023 06 23    21 15 17.0 +11 24 40   0.5766  1.4079   121.7    37.9    20.3
    ...
    2023 07 01    21 15 42.8 +13 35 42   0.5822  1.4419   126.6    34.5    20.3
    ...
    2023 07 16    21 09 28.9 +15 48 17   0.6046  1.5139   136.6    27.5    20.3
    
    M. P. C. Staff               (C) Copyright 2023 MPC           M.P.E.C. 2023-M03
    


    Read MPEC 2023-M02 Read MPEC 2023-M04


    MPEC number:

    Enter an MPEC number in one of the following forms:

    • 1997-B01 (the full form)
    • J97B01 (the packed version of the full form)
    • B01 (the abbreviated form)